AV279 Weather Reports


time (UTC)temp
C
wind
direction
speed
KPH
gust
KPH
rain 1hr
cm
rain 24hr
cm
rain mn
cm
humidity
%
barometer
mb
20260901185138 17 225 1.6 3.2 0.00 0.46 0.03 76 1020.3
20260901184317 17 0.0 1.6 0.00 0.46 0.03 75 1020.2
20260901183420 17 0.0 1.6 0.00 0.46 0.03 74 1020.2
20260901182420 17 0.0 1.6 0.00 0.46 0.03 73 1020.0
20260901181418 18 248 1.6 3.2 0.00 0.46 0.03 72 1020.0
20260901180523 18 225 1.6 3.2 0.00 0.46 0.03 72 1020.1
20260901175420 18 225 1.6 3.2 0.00 0.46 0.03 71 1020.0
20260901174441 18 225 3.2 4.8 0.00 0.46 0.03 70 1020.0
20260901173430 18 248 4.8 6.4 0.00 0.46 0.03 68 1019.9
20260901172438 19 248 1.6 3.2 0.00 0.46 0.03 67 1019.9
20260901171420 19 248 4.8 6.4 0.00 0.46 0.03 66 1019.9
20260901170420 19 248 1.6 3.2 0.00 0.46 0.03 65 1020.1
20260901165419 20 225 3.2 4.8 0.00 0.46 0.03 64 1020.1
20260901164419 20 248 6.4 12.9 0.00 0.46 0.03 63 1020.1
20260901163440 20 270 3.2 4.8 0.00 0.46 0.03 63 1020.1
20260901162420 20 293 4.8 9.7 0.00 0.46 0.03 63 1020.1
20260901161420 20 248 8.0 12.9 0.00 0.46 0.03 62 1020.1
20260901160420 20 225 6.4 11.3 0.00 0.46 0.03 64 1020.1
20260901155430 20 225 4.8 8.0 0.00 0.46 0.03 64 1020.1
20260901154420 20 248 4.8 8.0 0.00 0.46 0.03 64 1019.9
20260901153430 20 248 3.2 4.8 0.00 0.46 0.03 65 1020.0
20260901152441 21 225 4.8 8.0 0.00 0.46 0.03 62 1020.1
20260901151420 21 203 4.8 8.0 0.00 0.46 0.03 60 1020.0
20260901150420 21 248 4.8 12.9 0.00 0.46 0.03 60 1020.0
20260901145430 21 270 1.6 3.2 0.00 0.46 0.03 60 1020.0
20260901144502 21 248 4.8 11.3 0.00 0.46 0.03 60 1020.1
20260901143440 21 203 8.0 12.9 0.00 0.46 0.03 57 1020.0
20260901142419 21 180 3.2 6.4 0.00 0.46 0.03 58 1020.1
20260901141419 21 293 3.2 4.8 0.00 0.46 0.03 59 1020.1
20260901140420 21 203 1.6 3.2 0.00 0.46 0.03 59 1020.1
20260901135420 21 293 3.2 6.4 0.00 0.46 0.03 59 1020.1
20260901134420 21 248 1.6 6.4 0.00 0.46 0.03 57 1020.3
20260901133618 22 248 8.0 12.9 0.00 0.46 0.03 57 1020.3
20260901132800 22 225 8.0 12.9 0.00 0.46 0.03 56 1020.3
20260901131719 22 248 3.2 4.8 0.00 0.46 0.03 56 1020.4
20260901130720 22 248 6.4 9.7 0.00 0.46 0.03 56 1020.4
20260901125847 22 270 3.2 6.4 0.00 0.46 0.03 56 1020.5
20260901125603 22 293 3.2 4.8 0.00 0.46 0.03 56 1020.4
20260901124530 21 270 3.2 6.4 0.00 0.46 0.03 59 1020.3
20260901123520 22 225 6.4 9.7 0.00 0.46 0.03 60 1020.5
20260901122550 21 270 4.8 9.7 0.00 0.46 0.03 61 1020.2
20260901121519 21 203 3.2 6.4 0.00 0.46 0.03 61 1020.3
20260901120550 21 45 3.2 6.4 0.00 0.46 0.03 62 1020.4
20260901115519 21 270 4.8 11.3 0.00 0.46 0.03 65 1020.5
20260901114519 21 203 3.2 8.0 0.00 0.46 0.03 67 1020.5
20260901113530 20 158 3.2 6.4 0.00 0.46 0.03 66 1020.5
20260901112519 20 203 1.6 3.2 0.00 0.46 0.03 66 1020.5
20260901111559 21 225 3.2 4.8 0.00 0.46 0.03 64 1020.7
20260901110550 21 293 8.0 12.9 0.00 0.46 0.03 65 1020.6
20260901105611 21 225 3.2 6.4 0.00 0.46 0.03 65 1020.5
20260901104716 21 225 4.8 8.0 0.00 0.46 0.03 67 1020.5
20260901103851 21 225 3.2 4.8 0.00 0.46 0.03 67 1020.5
20260901102819 21 248 6.4 12.9 0.00 0.46 0.03 67 1020.5
20260901101840 21 225 4.8 6.4 0.00 0.46 0.03 67 1020.5
20260901100819 21 293 3.2 4.8 0.00 0.46 0.03 69 1020.4
20260901095819 20 293 4.8 12.9 0.00 0.46 0.03 71 1020.4
20260901094830 19 315 1.6 3.2 0.00 0.46 0.03 76 1020.5
20260901093819 19 270 3.2 4.8 0.00 0.46 0.03 73 1020.6
20260901092830 20 270 1.6 6.4 0.00 0.46 0.03 74 1020.5
20260901091819 20 270 4.8 11.3 0.00 0.46 0.03 74 1020.4
20260901090819 20 158 1.6 3.2 0.00 0.46 0.03 78 1020.2
20260901085819 18 0.0 1.6 0.00 0.46 0.03 79 1020.2
20260901084819 18 270 1.6 4.8 0.00 0.46 0.03 79 1020.1
20260901083839 18 248 4.8 12.9 0.00 0.46 0.03 82 1019.9
20260901082839 18 248 1.6 3.2 0.00 0.46 0.03 82 1019.9
20260901081819 18 270 1.6 3.2 0.00 0.46 0.03 83 1020.0
20260901080819 19 180 3.2 8.0 0.00 0.46 0.03 85 1019.8
20260901075841 18 270 1.6 3.2 0.00 0.46 0.03 90 1019.7
20260901074819 18 293 1.6 1.6 0.00 0.46 0.03 92 1019.6
20260901073819 17 0.0 1.6 0.00 0.46 0.03 94 1019.6
20260901072819 16 270 1.6 1.6 0.00 0.46 0.03 94 1019.5
20260901072047 16 248 1.6 3.2 0.00 0.46 0.03 94 1019.4
20260901071519 16 225 1.6 3.2 0.00 0.46 0.03 93 1019.3
20260901070519 16 0.0 1.6 0.00 0.46 0.03 94 1019.2
20260901065530 15 293 1.6 3.2 0.00 0.48 0.03 94 1019.2
20260901064518 15 0.0 1.6 0.00 0.48 0.03 94 1019.1
20260901063519 15 0.0 1.6 0.00 0.48 0.03 94 1019.1
20260901062717 15 225 1.6 3.2 0.00 0.51 0.03 94 1019.1
20260901062019 15 225 1.6 3.2 0.00 0.51 0.03 93 1019.0
20260901061215 15 225 3.2 3.2 0.00 0.51 0.03 93 1018.9
20260901060751 15 0.0 0.0 0.00 0.51 0.03 93 1018.9
20260901055739 15 225 3.2 4.8 0.00 0.51 0.03 93 1018.8
20260901054719 15 225 1.6 3.2 0.00 0.53 0.03 93 1018.8
20260901053719 15 0.0 0.0 0.00 0.53 0.03 93 1018.7
20260901052718 15 0.0 0.0 0.00 0.53 0.03 93 1018.7
20260901051719 15 0.0 0.0 0.00 0.53 0.03 93 1018.6
20260901050729 15 0.0 1.6 0.00 0.53 0.03 93 1018.5
20260901045751 15 0.0 0.0 0.00 0.53 0.03 93 1018.4
20260901044739 15 225 1.6 3.2 0.00 0.53 0.03 93 1018.4
20260901043759 15 0.0 0.0 0.00 0.53 0.03 93 1018.2
20260901042729 15 0.0 0.0 0.00 0.53 0.03 93 1018.1
20260901041739 15 0.0 0.0 0.00 0.53 0.03 93 1018.0
20260901040729 15 0.0 0.0 0.00 0.53 0.03 93 1018.1
20260901035718 15 0.0 0.0 0.00 0.53 0.03 93 1017.9
20260901034719 15 0.0 0.0 0.00 0.53 0.03 93 1017.9
20260901033932 15 0.0 0.0 0.00 0.56 0.03 94 1017.9
20260901033618 15 0.0 0.0 0.00 0.56 0.03 93 1017.9
20260901032639 15 0.0 0.0 0.00 0.56 0.03 93 1017.9
20260901031618 15 0.0 0.0 0.00 0.56 0.03 93 1017.9
20260901030817 16 225 1.6 3.2 0.03 0.56 0.03 93 1017.8
20260901025618 16 270 3.2 3.2 0.03 0.56 0.03 94 1017.7
20260901024618 16 270 1.6 3.2 0.03 0.61 0.03 94 1017.8
20260901023618 16 0.0 0.0 0.03 0.71 0.03 94 1017.6
20260901022618 16 0.0 0.0 0.03 0.71 0.03 93 1017.6
20260901021618 16 0.0 0.0 0.03 0.71 0.03 93 1017.6
20260901020618 16 0.0 0.0 0.00 0.71 0.00 94 1017.7
20260901015640 16 225 1.6 4.8 0.00 0.71 0.00 94 1017.8
20260901014639 16 225 1.6 3.2 0.00 0.71 0.00 94 1017.6
20260901013618 16 225 1.6 3.2 0.00 0.71 0.00 94 1017.7
20260901012618 16 225 1.6 3.2 0.00 0.71 0.00 94 1017.7
20260901011618 16 315 1.6 3.2 0.00 0.71 0.00 94 1017.7
20260901010620 16 248 3.2 4.8 0.00 0.71 0.00 94 1017.7
20260901005640 16 0.0 0.0 0.00 0.74 0.00 94 1017.5
20260901004618 16 248 3.2 4.8 0.00 0.74 0.00 94 1017.6
20260901003620 16 270 3.2 3.2 0.00 0.74 0.00 94 1017.4
20260901002618 16 293 3.2 4.8 0.00 0.81 0.00 94 1017.4
20260901001629 16 225 1.6 3.2 0.00 1.17 0.00 94 1017.5
20260901000619 16 203 1.6 3.2 0.00 1.19 0.00 94 1017.4
20260831235618 16 293 1.6 3.2 0.00 1.19 1.19 94 1017.5
20260831234619 17 225 3.2 4.8 0.00 1.19 1.19 94 1017.4
20260831233619 17 293 3.2 4.8 0.00 1.19 1.19 94 1017.4
20260831232629 17 0.0 0.0 0.00 1.19 1.19 94 1017.4
20260831231618 17 225 3.2 6.4 0.00 1.19 1.19 94 1017.4
20260831230629 17 225 3.2 6.4 0.00 1.19 1.19 94 1017.4
20260831225629 17 203 3.2 4.8 0.00 1.19 1.19 93 1017.5
20260831224618 17 225 4.8 9.7 0.00 1.19 1.19 93 1017.5
20260831223618 17 225 3.2 4.8 0.00 1.19 1.19 93 1017.5
20260831222650 17 203 4.8 8.0 0.00 1.19 1.19 93 1017.5
20260831221618 17 225 3.2 6.4 0.00 1.19 1.19 93 1017.4
20260831220640 17 203 3.2 4.8 0.00 1.19 1.19 93 1017.4
20260831215618 16 225 3.2 4.8 0.00 1.19 1.19 93 1017.3
20260831214629 16 225 4.8 6.4 0.05 1.19 1.19 93 1017.4
20260831213618 16 203 1.6 3.2 0.15 1.19 1.19 92 1017.2
20260831212618 16 203 1.6 3.2 0.43 1.19 1.19 92 1017.2
20260831211618 16 0.0 0.0 0.43 1.19 1.19 91 1017.0
20260831210638 16 225 1.6 3.2 0.43 1.19 1.19 91 1017.0
20260831205619 16 248 1.6 4.8 0.43 1.19 1.19 90 1017.2
20260831204619 16 248 1.6 3.2 0.38 1.14 1.14 89 1017.1
20260831203640 18 270 6.4 11.3 0.28 1.04 1.04 86 1017.1
20260831202640 18 225 3.2 4.8 0.00 0.76 0.76 86 1017.0
20260831201618 18 225 3.2 6.4 0.00 0.76 0.76 85 1017.0
20260831200629 18 203 3.2 6.4 0.00 0.76 0.76 83 1016.8
20260831195649 18 0 1.6 1.6 0.00 0.76 0.76 81 1016.8
20260831194618 18 0.0 1.6 0.00 0.76 0.76 82 1016.8
20260831193618 18 0 1.6 3.2 0.00 0.76 0.76 86 1016.6
20260831192629 18 293 3.2 4.8 0.00 0.76 0.76 86 1016.5
20260831191641 18 270 3.2 6.4 0.00 0.76 0.76 85 1016.1
20260831190618 18 270 4.8 11.3 0.00 0.79 0.76 85 1015.8
20260831185618 18 248 4.8 9.7 0.00 0.79 0.76 84 1015.7